DTUSAT 1 27842U 03031C 10076.02664486 .00000059 00000-0 47250-4 0 7848 2 27842 98.7048 87.2247 0010325 57.3708 302.8471 14.21022199348092 CUTE-1 (CO-55) 1 27844U 03031E 10075.69437205 .00000076 00000-0 55477-4 0 8029 2 27844 98.7132 85.9917 0010930 77.3913 282.8489 14.20691121347955 QUAKESAT 1 27845U 03031F 10076.55887297 .00000114 00000-0 73712-4 0 7750 2 27845 98.7195 86.3132 0009854 92.5379 267.6937 14.20334878347971 AAU CUBESAT 1 27846U 03031G 10076.44870705 .00000070 00000-0 52519-4 0 7062 2 27846 98.7042 87.6317 0010337 55.9813 304.2354 14.21022163348150 CANX-1 1 27847U 03031H 10076.60186129 .00000045 00000-0 41044-4 0 7255 2 27847 98.7046 87.7696 0010400 55.5156 304.6982 14.21000838348126 CUBESAT XI-IV (CO-57) 1 27848U 03031J 10075.99226071 .00000064 00000-0 50006-4 0 7549 2 27848 98.7168 85.3635 0010717 81.0563 279.1827 14.20485920347958 UWE-1 1 28892U 05043C 10076.73300002 .00000231 00000-0 57670-4 0 5812 2 28892 98.0251 323.4983 0016595 208.9552 151.0744 14.59834264233753 CUBESAT XI-V (CO-58) 1 28895U 05043F 10076.61827983 .00000126 00000-0 35675-4 0 5380 2 28895 98.0286 324.0649 0017408 209.1421 150.8811 14.59859691233621 NCUBE-2 1 28897U 05043H 10076.64234049 .00000194 00000-0 49767-4 0 994 2 28897 98.0262 323.9860 0016440 209.8557 150.1743 14.60044340225922 GENESAT-1 1 29655U 06058C 10076.92198845 .00066323 00000-0 38309-3 0 9790 2 29655 40.0170 257.5008 0006577 3.7677 356.3187 15.77598863185504 CSTB1 1 31122U 07012F 10076.10209602 .00000556 00000-0 13192-3 0 8773 2 31122 97.9545 125.9940 0086027 143.3979 217.3103 14.55350107154850 MAST 1 31126U 07012K 10076.18761023 .00000115 00000-0 36261-4 0 8207 2 31126 97.9490 122.9082 0094731 151.4251 209.2184 14.53563397154697 LIBERTAD-1 1 31128U 07012M 10076.85120281 -.00000046 00000-0 00000+0 0 8793 2 31128 97.9528 121.1033 0103652 156.8649 203.7268 14.52129351154612 POLYSAT CP3 1 31129U 07012N 10076.09694589 .00000448 00000-0 11344-3 0 5303 2 31129 97.9525 120.5523 0103499 158.8735 201.6832 14.52224678154492 CAPE1 1 31130U 07012P 10076.35663843 .00000075 00000-0 27716-4 0 8392 2 31130 97.9525 120.6628 0103411 158.3418 202.2203 14.52146646154338 POLYSAT CP4 1 31132U 07012Q 10076.11482144 .00000463 00000-0 11161-3 0 8499 2 31132 97.9549 125.8241 0086836 143.2782 217.4397 14.55290929154724 NTS (CANX-6) 1 32784U 08021B 10076.92561287 -.00000054 00000-0 -18246-6 0 6354 2 32784 97.9068 142.7381 0015324 214.1407 145.8816 14.81149543101943 CUTE-1.7+APD II (CO-65) 1 32785U 08021C 10076.92615667 -.00000008 00000-0 56812-5 0 6300 2 32785 97.9052 143.0779 0014095 218.5838 141.4359 14.81603390101974 COMPASS-1 1 32787U 08021E 10076.26763540 .00000447 00000-0 63276-4 0 6210 2 32787 97.9036 142.2555 0014919 222.4998 137.5071 14.81790369101887 AAUSAT-II 1 32788U 08021F 10076.68453991 .00000727 00000-0 98357-4 0 6166 2 32788 97.9045 142.7751 0014334 222.3876 137.6222 14.81929452101950 DELFI-C3 (DO-64) 1 32789U 08021G 10076.70075396 .00001083 00000-0 14296-3 0 6322 2 32789 97.9092 143.1673 0015086 219.1357 140.8728 14.82017414101958 CANX-2 1 32790U 08021H 10076.66292113 -.00000033 00000-0 25268-5 0 6167 2 32790 97.9041 142.7486 0014630 221.1228 138.8902 14.81572424101918 SEEDS II (CO-66) 1 32791U 08021J 10076.68182577 .00000511 00000-0 71738-4 0 6131 2 32791 97.9060 142.6885 0015176 219.0635 140.9473 14.81592083101905 POLYSAT CP6 1 35003U 09028C 10076.22748355 .00015663 00000-0 34291-3 0 2413 2 35003 40.4603 41.5885 0023681 44.6743 315.5972 15.43425265 46491 HAWKSAT 1 1 35004U 09028D 10076.26449546 .00018071 00000-0 38879-3 0 2342 2 35004 40.4577 40.9973 0022273 46.7343 313.5319 15.43901248 46491 AEROCUBE 3 1 35005U 09028E 10076.26272428 .00036103 00000-0 73121-3 0 2497 2 35005 40.4724 41.3063 0019227 47.6358 312.6083 15.45466255 46496 SWISSCUBE 1 35932U 09051B 10076.80698391 .00005227 00000-0 12986-2 0 2813 2 35932 98.3276 175.1964 0008388 110.5709 249.5932 14.52184377 25476 BEESAT 1 35933U 09051C 10076.73910643 .00007809 00000-0 19109-2 0 3063 2 35933 98.3212 175.1992 0006758 134.8139 225.3083 14.52755704 25470 UWE-2 1 35934U 09051D 10076.80330301 .00003306 00000-0 81574-3 0 2444 2 35934 98.3213 175.2114 0007015 121.4028 238.7776 14.52769752 25492 ITUPSAT 1 1 35935U 09051E 10076.73718138 .00001932 00000-0 48744-3 0 1685 2 35935 98.3325 175.2334 0009337 107.4436 252.7771 14.52171311 25463